When you browse on this site, cookies collect data to enhance your experience and personalize the content and advertising you see.
Visit our Privacy Policy to learn more. By continuing to use the site, you agree to this use of cookies and data.
  • In United Kingdom
  • List of Countries
  • For 7 days
  • Water Temperature
  • Weather Map
  • Weather Widgets
  • user-avatar
    Login

    Hourly Weather Görele

    Today, 26 August, Monday

    Time Temperature Precipitation Wind Pressure Humidity
    00:00 +24°C° 0 mm 1 mps 759 mmHg 90%
    01:00 +24°C° 0 mm 1 mps 759 mmHg 89%
    02:00 +24°C° 0 mm 1 mps 759 mmHg 89%
    03:00 +24°C° 0 mm 1 mps 758 mmHg 88%
    04:00 +24°C° 0 mm 1 mps 758 mmHg 88%
    05:00 +24°C° 0 mm 1 mps 758 mmHg 87%
    06:00 +24°C° 0 mm 1 mps 758 mmHg 86%
    07:00 +25°C° 0 mm 1 mps 758 mmHg 83%
    08:00 +26°C° 0 mm 1 mps 758 mmHg 80%
    09:00 +28°C° 0 mm 1 mps 758 mmHg 77%
    10:00 +28°C° 0.1 mm 1 mps 758 mmHg 78%
    11:00 +28°C° 0.1 mm 1 mps 758 mmHg 78%
    12:00 +28°C° 0.1 mm 2 mps 758 mmHg 78%
    13:00 +28°C° 0.1 mm 2 mps 757 mmHg 79%
    14:00 +28°C° 0.1 mm 2 mps 757 mmHg 80%
    15:00 +28°C° 0.1 mm 2 mps 757 mmHg 81%
    16:00 +28°C° 0 mm 1 mps 757 mmHg 82%
    17:00 +27°C° 0 mm 1 mps 756 mmHg 84%
    18:00 +27°C° 0 mm 1 mps 756 mmHg 86%
    19:00 +26°C° 0 mm 1 mps 757 mmHg 88%
    20:00 +26°C° 0 mm 1 mps 757 mmHg 90%
    21:00 +23°C° 0 mm 0 mps 757 mmHg 91%
    22:00 +25°C° 0 mm 1 mps 757 mmHg 92%
    23:00 +25°C° 0 mm 1 mps 757 mmHg 92%

    Tomorrow, 27 August, Tuesday

    Time Temperature Precipitation Wind Pressure Humidity
    00:00 +25°C° 0 mm 1 mps 757 mmHg 92%
    01:00 +25°C° 0.1 mm 1 mps 757 mmHg 92%
    02:00 +25°C° 0.1 mm 1 mps 757 mmHg 92%
    03:00 +24°C° 0.1 mm 1 mps 757 mmHg 92%
    04:00 +24°C° 0.2 mm 1 mps 757 mmHg 92%
    05:00 +24°C° 0.2 mm 1 mps 757 mmHg 92%
    06:00 +24°C° 0.2 mm 1 mps 756 mmHg 91%
    07:00 +25°C° 0.2 mm 2 mps 757 mmHg 90%
    08:00 +26°C° 0.2 mm 2 mps 757 mmHg 89%
    09:00 +26°C° 0.2 mm 2 mps 757 mmHg 87%
    10:00 +26°C° 0.3 mm 2 mps 757 mmHg 87%
    11:00 +27°C° 0.3 mm 2 mps 757 mmHg 86%
    12:00 +27°C° 0.3 mm 3 mps 757 mmHg 86%
    13:00 +27°C° 0.1 mm 3 mps 757 mmHg 84%
    14:00 +27°C° 0.1 mm 2 mps 756 mmHg 83%
    15:00 +28°C° 0.1 mm 2 mps 756 mmHg 81%
    16:00 +27°C° 0.1 mm 2 mps 756 mmHg 82%
    17:00 +27°C° 0.1 mm 2 mps 756 mmHg 84%
    18:00 +27°C° 0.1 mm 2 mps 756 mmHg 85%
    19:00 +26°C° 0 mm 2 mps 757 mmHg 86%
    20:00 +26°C° 0 mm 2 mps 757 mmHg 87%
    21:00 +25°C° 0 mm 2 mps 757 mmHg 88%
    22:00 +25°C° 0.1 mm 3 mps 758 mmHg 89%
    23:00 +25°C° 0.1 mm 3 mps 758 mmHg 89%

    Day after tomorrow, 28 August, Wednesday

    Time Temperature Precipitation Wind Pressure Humidity
    00:00 +25°C° 0.1 mm 4 mps 758 mmHg 90%
    01:00 +25°C° 0.2 mm 4 mps 758 mmHg 90%
    02:00 +23°C° 0.2 mm 4 mps 758 mmHg 91%
    03:00 +23°C° 0.2 mm 4 mps 758 mmHg 92%
    04:00 +23°C° 0.2 mm 4 mps 758 mmHg 92%
    05:00 +24°C° 0.2 mm 3 mps 758 mmHg 91%
    06:00 +24°C° 0.2 mm 3 mps 758 mmHg 91%
    07:00 +25°C° 0.1 mm 3 mps 758 mmHg 88%
    08:00 +26°C° 0.1 mm 3 mps 758 mmHg 85%
    09:00 +27°C° 0.1 mm 3 mps 758 mmHg 83%
    10:00 +27°C° 0.1 mm 3 mps 757 mmHg 82%
    11:00 +27°C° 0.1 mm 3 mps 757 mmHg 81%
    12:00 +28°C° 0.1 mm 3 mps 757 mmHg 80%
    13:00 +27°C° 0.1 mm 3 mps 757 mmHg 80%
    14:00 +27°C° 0.1 mm 3 mps 756 mmHg 80%
    15:00 +27°C° 0.1 mm 2 mps 756 mmHg 80%
    16:00 +27°C° 0 mm 2 mps 756 mmHg 81%
    17:00 +27°C° 0 mm 1 mps 756 mmHg 82%
    18:00 +26°C° 0 mm 1 mps 756 mmHg 83%
    19:00 +26°C° 0 mm 1 mps 756 mmHg 85%
    20:00 +25°C° 0 mm 1 mps 757 mmHg 87%
    21:00 +25°C° 0 mm 1 mps 757 mmHg 89%
    22:00 +25°C° 0 mm 1 mps 757 mmHg 89%
    23:00 +25°C° 0 mm 2 mps 757 mmHg 88%

    29 August, Thursday

    Time Temperature Precipitation Wind Pressure Humidity
    00:00 +24°C° 0 mm 2 mps 757 mmHg 88%
    01:00 +24°C° 0 mm 2 mps 757 mmHg 88%
    02:00 +24°C° 0 mm 2 mps 757 mmHg 89%
    03:00 +24°C° 0 mm 2 mps 757 mmHg 89%
    04:00 +24°C° 0.1 mm 2 mps 756 mmHg 89%
    05:00 +24°C° 0.1 mm 2 mps 756 mmHg 89%
    06:00 +24°C° 0.1 mm 2 mps 756 mmHg 90%
    07:00 +25°C° 0.1 mm 3 mps 756 mmHg 88%
    08:00 +26°C° 0.1 mm 3 mps 756 mmHg 87%
    09:00 +26°C° 0.1 mm 4 mps 756 mmHg 85%
    10:00 +26°C° 0.1 mm 4 mps 756 mmHg 86%
    11:00 +26°C° 0.1 mm 4 mps 756 mmHg 87%
    12:00 +26°C° 0.1 mm 4 mps 755 mmHg 87%
    13:00 +26°C° 0 mm 4 mps 755 mmHg 87%
    14:00 +26°C° 0 mm 3 mps 755 mmHg 86%
    15:00 +27°C° 0 mm 3 mps 755 mmHg 85%
    16:00 +26°C° 0 mm 3 mps 754 mmHg 85%
    17:00 +26°C° 0 mm 2 mps 754 mmHg 85%
    18:00 +26°C° 0 mm 2 mps 754 mmHg 86%
    19:00 +25°C° 0 mm 2 mps 754 mmHg 87%
    20:00 +25°C° 0 mm 2 mps 754 mmHg 88%
    21:00 +24°C° 0 mm 3 mps 755 mmHg 90%
    22:00 +24°C° 0 mm 3 mps 755 mmHg 90%
    23:00 +23°C° 0 mm 4 mps 755 mmHg 90%

    30 August, Friday

    Time Temperature Precipitation Wind Pressure Humidity
    00:00 +23°C° 0 mm 4 mps 755 mmHg 91%
    01:00 +23°C° 0.1 mm 4 mps 754 mmHg 91%
    02:00 +23°C° 0.1 mm 4 mps 754 mmHg 91%
    03:00 +23°C° 0.1 mm 4 mps 754 mmHg 90%
    04:00 +23°C° 0 mm 4 mps 754 mmHg 90%
    05:00 +22°C° 0 mm 4 mps 754 mmHg 89%
    06:00 +22°C° 0 mm 5 mps 754 mmHg 89%
    07:00 +23°C° 0.1 mm 5 mps 754 mmHg 88%
    08:00 +23°C° 0.1 mm 5 mps 754 mmHg 87%
    09:00 +23°C° 0.1 mm 6 mps 754 mmHg 86%
    10:00 +23°C° 0.2 mm 6 mps 754 mmHg 86%
    11:00 +24°C° 0.2 mm 6 mps 755 mmHg 85%
    12:00 +24°C° 0.2 mm 6 mps 755 mmHg 85%
    13:00 +24°C° 0.1 mm 6 mps 755 mmHg 84%
    14:00 +25°C° 0.1 mm 5 mps 755 mmHg 83%
    15:00 +25°C° 0.1 mm 5 mps 755 mmHg 83%
    16:00 +23°C° 0 mm 5 mps 755 mmHg 82%
    17:00 +23°C° 0 mm 5 mps 755 mmHg 82%
    18:00 +23°C° 0 mm 5 mps 755 mmHg 82%
    19:00 +23°C° 0 mm 5 mps 756 mmHg 82%
    20:00 +22°C° 0 mm 5 mps 756 mmHg 82%
    21:00 +21°C° 0 mm 5 mps 756 mmHg 82%
    22:00 +21°C° 0 mm 5 mps 756 mmHg 82%
    23:00 +21°C° 0 mm 5 mps 756 mmHg 82%

    31 August, Saturday

    Time Temperature Precipitation Wind Pressure Humidity
    00:00 +20°C° 0 mm 6 mps 756 mmHg 82%
    01:00 +20°C° 0 mm 5 mps 756 mmHg 82%
    02:00 +20°C° 0 mm 5 mps 756 mmHg 83%
    03:00 +20°C° 0 mm 5 mps 756 mmHg 83%
    04:00 +19°C° 0 mm 5 mps 756 mmHg 82%
    05:00 +19°C° 0 mm 4 mps 756 mmHg 82%
    06:00 +19°C° 0 mm 4 mps 756 mmHg 81%
    07:00 +21°C° 0 mm 4 mps 756 mmHg 76%
    08:00 +23°C° 0 mm 4 mps 757 mmHg 70%
    09:00 +25°C° 0 mm 4 mps 757 mmHg 65%
    10:00 +26°C° 0 mm 4 mps 757 mmHg 64%
    11:00 +26°C° 0 mm 5 mps 757 mmHg 63%
    12:00 +27°C° 0 mm 6 mps 757 mmHg 63%
    13:00 +26°C° 0 mm 5 mps 757 mmHg 67%
    14:00 +26°C° 0 mm 5 mps 756 mmHg 71%
    15:00 +25°C° 0 mm 5 mps 756 mmHg 75%
    16:00 +25°C° 0 mm 4 mps 756 mmHg 76%
    17:00 +23°C° 0 mm 4 mps 757 mmHg 77%
    18:00 +23°C° 0 mm 4 mps 757 mmHg 78%
    19:00 +22°C° 0 mm 4 mps 757 mmHg 80%
    20:00 +21°C° 0 mm 4 mps 757 mmHg 81%
    21:00 +21°C° 0 mm 5 mps 758 mmHg 83%
    22:00 +21°C° 0 mm 4 mps 758 mmHg 82%
    23:00 +20°C° 0 mm 4 mps 758 mmHg 81%
    Show more